When you browse on this site, cookies collect data to enhance your experience and personalize the content and advertising you see.
Visit our Privacy Policy to learn more. By continuing to use the site, you agree to this use of cookies and data.
  • In Romania
  • List of Countries
  • For 7 days
  • Water Temperature
  • Satellite Maps
  • Weather Map
  • Weather Widgets
  • user-avatar
    Login

    Hourly Weather Łobez

    Today, 23 February, Saturday

    Time Temperature Precipitation Wind Pressure Humidity
    00:00 -3°C° 0 mm 2 mps 777 mmHg 48%
    01:00 -3°C° 0 mm 2 mps 778 mmHg 47%
    02:00 -3°C° 0 mm 2 mps 777 mmHg 46%
    03:00 -3°C° 0 mm 2 mps 777 mmHg 45%
    04:00 -4°C° 0 mm 3 mps 777 mmHg 43%
    05:00 -3°C° 0 mm 2 mps 777 mmHg 43%
    06:00 -4°C° 0 mm 2 mps 777 mmHg 43%
    07:00 -5°C° 0 mm 3 mps 777 mmHg 44%
    08:00 -4°C° 0 mm 3 mps 777 mmHg 41%
    09:00 -2°C° 0 mm 3 mps 777 mmHg 38%
    10:00 -2°C° 0 mm 3 mps 777 mmHg 36%
    11:00 -1°C° 0 mm 3 mps 777 mmHg 33%
    12:00 0°C° 0 mm 3 mps 776 mmHg 31%
    13:00 +1°C° 0 mm 3 mps 777 mmHg 30%
    14:00 +1°C° 0 mm 3 mps 776 mmHg 31%
    15:00 +1°C° 0 mm 3 mps 775 mmHg 32%
    16:00 +2°C° 0 mm 3 mps 775 mmHg 32%
    17:00 +1°C° 0 mm 3 mps 775 mmHg 35%
    18:00 +1°C° 0 mm 2 mps 775 mmHg 38%
    19:00 -1°C° 0 mm 2 mps 775 mmHg 41%
    20:00 -2°C° 0 mm 2 mps 774 mmHg 41%
    21:00 -2°C° 0 mm 2 mps 774 mmHg 41%
    22:00 -2°C° 0 mm 2 mps 774 mmHg 41%
    23:00 -2°C° 0 mm 2 mps 774 mmHg 40%

    Tomorrow, 24 February, Sunday

    Time Temperature Precipitation Wind Pressure Humidity
    00:00 -2°C° 0 mm 2 mps 773 mmHg 40%
    01:00 -1°C° 0 mm 2 mps 773 mmHg 39%
    02:00 -1°C° 0 mm 2 mps 773 mmHg 40%
    03:00 -2°C° 0 mm 2 mps 773 mmHg 41%
    04:00 -2°C° 0 mm 2 mps 772 mmHg 42%
    05:00 -2°C° 0 mm 2 mps 772 mmHg 42%
    06:00 -2°C° 0 mm 2 mps 772 mmHg 43%
    07:00 -2°C° 0 mm 2 mps 772 mmHg 43%
    08:00 +1°C° 0 mm 2 mps 772 mmHg 41%
    09:00 +1°C° 0 mm 3 mps 772 mmHg 39%
    10:00 +2°C° 0 mm 3 mps 772 mmHg 37%
    11:00 +4°C° 0 mm 3 mps 772 mmHg 37%
    12:00 +5°C° 0 mm 3 mps 772 mmHg 37%
    13:00 +7°C° 0 mm 3 mps 772 mmHg 37%
    14:00 +7°C° 0 mm 3 mps 771 mmHg 42%
    15:00 +6°C° 0 mm 2 mps 771 mmHg 47%
    16:00 +6°C° 0 mm 2 mps 771 mmHg 53%
    17:00 +5°C° 0 mm 2 mps 771 mmHg 56%
    18:00 +4°C° 0 mm 2 mps 771 mmHg 60%
    19:00 +2°C° 0 mm 2 mps 771 mmHg 63%
    20:00 +2°C° 0 mm 2 mps 771 mmHg 67%
    21:00 +2°C° 0 mm 2 mps 771 mmHg 70%
    22:00 +1°C° 0 mm 3 mps 771 mmHg 73%
    23:00 0°C° 0 mm 3 mps 771 mmHg 76%

    Day after tomorrow, 25 February, Monday

    Time Temperature Precipitation Wind Pressure Humidity
    00:00 +1°C° 0 mm 2 mps 771 mmHg 79%
    01:00 +1°C° 0 mm 2 mps 771 mmHg 82%
    02:00 0°C° 0 mm 3 mps 771 mmHg 85%
    03:00 0°C° 0 mm 3 mps 770 mmHg 88%
    04:00 0°C° 0 mm 3 mps 770 mmHg 91%
    05:00 0°C° 0 mm 3 mps 770 mmHg 92%
    06:00 +1°C° 0 mm 2 mps 770 mmHg 93%
    07:00 +1°C° 0 mm 2 mps 770 mmHg 95%
    08:00 +1°C° 0 mm 3 mps 770 mmHg 92%
    09:00 +3°C° 0 mm 3 mps 771 mmHg 90%
    10:00 +4°C° 0 mm 4 mps 771 mmHg 87%
    11:00 +5°C° 0 mm 4 mps 771 mmHg 82%
    12:00 +6°C° 0 mm 4 mps 770 mmHg 78%
    13:00 +7°C° 0 mm 4 mps 770 mmHg 73%
    14:00 +7°C° 0 mm 4 mps 770 mmHg 73%
    15:00 +7°C° 0 mm 4 mps 770 mmHg 74%
    16:00 +7°C° 0 mm 4 mps 769 mmHg 74%
    17:00 +5°C° 0 mm 3 mps 769 mmHg 80%
    18:00 +4°C° 0 mm 3 mps 769 mmHg 85%
    19:00 +3°C° 0 mm 3 mps 769 mmHg 90%
    20:00 +3°C° 0 mm 3 mps 769 mmHg 92%
    21:00 +3°C° 0 mm 3 mps 769 mmHg 93%
    22:00 +3°C° 0 mm 3 mps 769 mmHg 95%
    23:00 +3°C° 0 mm 3 mps 768 mmHg 95%

    26 February, Tuesday

    Time Temperature Precipitation Wind Pressure Humidity
    00:00 +3°C° 0 mm 3 mps 768 mmHg 96%
    01:00 +3°C° 0 mm 4 mps 768 mmHg 96%
    02:00 +3°C° 0 mm 4 mps 767 mmHg 95%
    03:00 +3°C° 0 mm 4 mps 767 mmHg 94%
    04:00 +3°C° 0 mm 4 mps 767 mmHg 93%
    05:00 +3°C° 0 mm 4 mps 766 mmHg 92%
    06:00 +3°C° 0 mm 4 mps 766 mmHg 91%
    07:00 +3°C° 0 mm 4 mps 766 mmHg 90%
    08:00 +4°C° 0 mm 4 mps 766 mmHg 86%
    09:00 +5°C° 0 mm 5 mps 766 mmHg 82%
    10:00 +6°C° 0 mm 5 mps 767 mmHg 78%
    11:00 +6°C° 0 mm 5 mps 767 mmHg 76%
    12:00 +7°C° 0 mm 4 mps 767 mmHg 75%
    13:00 +8°C° 0 mm 4 mps 767 mmHg 73%
    14:00 +8°C° 0 mm 4 mps 767 mmHg 74%
    15:00 +7°C° 0 mm 4 mps 767 mmHg 76%
    16:00 +7°C° 0 mm 4 mps 767 mmHg 77%
    17:00 +7°C° 0 mm 3 mps 767 mmHg 81%
    18:00 +6°C° 0 mm 2 mps 767 mmHg 86%
    19:00 +5°C° 0 mm 2 mps 767 mmHg 91%
    20:00 +4°C° 0 mm 2 mps 767 mmHg 90%
    21:00 +5°C° 0 mm 1 mps 767 mmHg 90%
    22:00 +5°C° 0 mm 1 mps 767 mmHg 90%
    23:00 +5°C° 0 mm 1 mps 767 mmHg 89%

    27 February, Wednesday

    Time Temperature Precipitation Wind Pressure Humidity
    00:00 +4°C° 0 mm 1 mps 767 mmHg 88%
    01:00 +3°C° 0 mm 2 mps 767 mmHg 87%
    02:00 +3°C° 0 mm 2 mps 766 mmHg 88%
    03:00 +3°C° 0 mm 2 mps 766 mmHg 88%
    04:00 +3°C° 0 mm 2 mps 766 mmHg 89%
    05:00 +1°C° 0 mm 3 mps 765 mmHg 90%
    06:00 +1°C° 0 mm 3 mps 765 mmHg 92%
    07:00 +1°C° 0 mm 3 mps 764 mmHg 93%
    08:00 +2°C° 0 mm 3 mps 764 mmHg 88%
    09:00 +4°C° 0 mm 4 mps 764 mmHg 82%
    10:00 +5°C° 0 mm 4 mps 764 mmHg 77%
    11:00 +6°C° 0 mm 4 mps 764 mmHg 74%
    12:00 +7°C° 0 mm 4 mps 763 mmHg 71%
    13:00 +8°C° 0 mm 4 mps 763 mmHg 69%
    14:00 +8°C° 0 mm 4 mps 763 mmHg 70%
    15:00 +8°C° 0 mm 4 mps 762 mmHg 70%
    16:00 +10°C° 0 mm 3 mps 761 mmHg 71%
    17:00 +8°C° 0 mm 3 mps 761 mmHg 76%
    18:00 +7°C° 0 mm 3 mps 760 mmHg 81%
    19:00 +6°C° 0 mm 2 mps 760 mmHg 86%
    20:00 +6°C° 0 mm 2 mps 759 mmHg 86%
    21:00 +5°C° 0 mm 3 mps 758 mmHg 86%
    22:00 +5°C° 0 mm 3 mps 758 mmHg 87%
    23:00 +5°C° 0 mm 3 mps 757 mmHg 85%

    28 February, Thursday

    Time Temperature Precipitation Wind Pressure Humidity
    00:00 +5°C° 0 mm 4 mps 756 mmHg 83%
    01:00 +4°C° 0 mm 4 mps 756 mmHg 81%
    02:00 +4°C° 0 mm 4 mps 755 mmHg 82%
    03:00 +4°C° 0 mm 4 mps 754 mmHg 83%
    04:00 +3°C° 0 mm 5 mps 754 mmHg 83%
    05:00 +3°C° 0 mm 6 mps 753 mmHg 86%
    06:00 +3°C° 0 mm 6 mps 753 mmHg 88%
    07:00 +3°C° 0 mm 7 mps 753 mmHg 91%
    08:00 +4°C° 0 mm 7 mps 753 mmHg 87%
    09:00 +4°C° 0 mm 8 mps 753 mmHg 84%
    10:00 +5°C° 0 mm 8 mps 753 mmHg 81%
    11:00 +5°C° 0 mm 9 mps 753 mmHg 75%
    12:00 +6°C° 0 mm 9 mps 753 mmHg 68%
    13:00 +7°C° 0 mm 10 mps 753 mmHg 62%
    14:00 +7°C° 0 mm 10 mps 753 mmHg 62%
    15:00 +6°C° 0 mm 10 mps 753 mmHg 62%
    16:00 +6°C° 0 mm 10 mps 753 mmHg 62%
    17:00 +5°C° 0 mm 9 mps 754 mmHg 65%
    18:00 +3°C° 0 mm 9 mps 754 mmHg 68%
    19:00 +2°C° 0 mm 8 mps 755 mmHg 71%
    20:00 +3°C° 0 mm 7 mps 755 mmHg 73%
    21:00 +3°C° 0 mm 7 mps 755 mmHg 75%
    22:00 +2°C° 0 mm 6 mps 755 mmHg 77%
    23:00 +2°C° 0 mm 6 mps 755 mmHg 79%
    Show more